Date,TemperatureHighF,TemperatureAvgF,TemperatureLowF,DewpointHighF,DewpointAvgF,DewpointLowF,HumidityHigh,HumidityAvg,HumidityLow,PressureMaxIn,PressureMinIn,WindSpeedMaxMPH,WindSpeedAvgMPH,GustSpeedMaxMPH,PrecipitationSumIn
2013-1-1,37.8,34.5,25.9,36.1,32.9,23.6,96,94,91,30.24,30.01,4,0,5,0.00
2013-1-2,36.5,28.2,22.6,32.1,25.4,20.6,93,89,79,30.27,30.16,3,0,3,0.00
2013-1-3,43.3,31.7,24.6,33.9,28.0,22.6,93,87,64,30.41,30.23,2,0,6,0.00
2013-1-4,45.9,33.9,26.8,33.0,28.8,25.0,94,83,54,30.46,30.30,5,0,6,0.00
2013-1-5,48.0,38.6,29.8,38.1,33.7,28.1,95,83,65,30.31,30.13,6,0,6,0.00
2013-1-6,46.2,35.9,27.7,32.5,28.9,25.4,94,78,48,30.35,30.17,6,0,6,0.00
2013-1-7,51.6,37.0,27.5,35.6,29.0,25.4,94,75,43,30.37,30.12,7,0,9,0.00
2013-1-8,56.8,43.4,29.5,44.3,35.2,26.6,91,74,51,30.17,30.03,6,0,14,0.00
2013-1-9,58.8,51.2,43.7,47.4,42.9,37.4,92,75,55,30.33,30.16,9,0,9,0.00
2013-1-10,52.5,48.0,44.4,50.6,45.9,37.6,97,93,57,30.24,29.80,11,1,11,0.12
2013-1-11,66.0,54.4,44.1,54.1,48.8,42.6,97,82,60,29.87,29.74,14,3,14,0.00
2013-1-12,57.0,47.2,34.2,51.8,44.6,32.5,95,91,78,29.91,29.74,8,0,8,0.61
2013-1-13,34.7,28.7,20.5,32.8,24.3,16.3,94,84,70,30.35,29.89,8,1,8,0.00
2013-1-14,30.2,23.4,17.8,19.8,16.6,14.2,89,76,57,30.49,30.33,7,0,7,0.00
2013-1-15,32.9,25.6,18.7,24.5,19.0,13.9,83,76,68,30.35,30.13,3,0,3,0.00
2013-1-16,44.2,30.9,21.4,28.4,23.6,18.8,90,76,48,30.20,30.05,4,0,4,0.00
2013-1-17,46.2,36.1,29.1,35.7,29.9,25.8,91,79,59,30.46,30.14,5,0,7,0.00
2013-1-18,58.8,42.8,26.2,42.0,31.7,24.7,94,68,39,30.50,30.17,12,2,13,0.00
2013-1-19,66.0,47.7,32.7,44.1,35.4,26.7,91,65,36,30.17,30.00,11,1,11,0.00
2013-1-20,53.4,41.2,31.6,36.6,30.3,20.3,94,69,37,30.26,30.09,6,0,7,0.00
2013-1-21,39.4,30.3,24.1,19.9,15.9,13.6,67,55,39,30.38,30.22,6,0,6,0.00
2013-1-22,37.6,29.4,21.7,20.7,18.1,12.7,83,64,45,30.37,30.23,8,0,8,0.00
2013-1-23,54.3,36.1,23.2,39.6,29.0,19.5,92,76,56,30.28,30.08,4,0,5,0.00
2013-1-24,40.6,34.5,29.3,35.5,19.2,13.6,89,54,42,30.39,30.17,11,3,14,0.00
2013-1-25,48.7,37.3,29.3,35.1,29.4,20.2,85,73,56,30.22,30.11,7,0,7,0.00
2013-1-26,55.9,43.1,30.7,37.9,29.9,25.9,93,65,32,30.29,30.14,9,1,9,0.00
2013-1-27,57.0,49.1,43.9,54.2,43.1,30.4,93,80,54,30.16,29.92,9,1,9,0.04
2013-1-28,74.8,65.9,56.8,62.5,59.1,54.2,94,80,59,29.95,29.83,18,3,19,0.00
2013-1-29,70.9,62.9,52.2,62.9,58.6,51.0,96,86,75,29.83,29.35,17,4,17,1.02
2013-1-30,52.3,39.1,28.9,51.2,33.1,22.3,96,79,69,30.02,29.42,18,3,18,0.00
2013-1-31,50.2,32.0,20.7,30.3,22.5,6.3,89,69,45,30.41,29.99,9,1,11,0.00
2013-2-1,40.3,26.0,13.6,17.3,10.0,3.4,65,52,34,30.51,30.19,7,1,7,0.00
2013-2-2,53.4,37.8,24.6,33.8,26.8,16.7,85,66,45,30.22,30.10,5,0,5,0.00
2013-2-3,54.1,43.5,35.8,33.8,28.9,23.0,83,59,32,30.23,29.98,10,0,10,0.00
2013-2-4,58.1,46.4,36.7,52.1,40.2,32.0,94,80,53,29.98,29.78,10,1,10,0.04
2013-2-5,64.6,45.7,32.0,49.6,37.0,30.6,96,76,35,30.04,29.89,6,0,6,0.00
2013-2-6,58.8,44.6,32.2,40.0,35.9,30.4,94,74,48,30.16,29.97,12,2,12,0.00
2013-2-7,61.9,49.7,42.1,52.4,45.0,38.4,96,85,61,30.01,29.81,6,0,6,0.31
2013-2-8,50.7,42.0,35.8,44.0,35.2,31.4,92,78,53,30.28,30.01,9,1,9,0.00
2013-2-9,42.4,38.0,34.3,36.6,32.6,29.6,91,81,70,30.26,29.91,10,3,13,0.02
2013-2-10,65.1,50.9,38.8,58.0,39.9,28.5,96,71,31,29.97,29.59,11,2,11,0.31
2013-2-11,54.3,42.7,33.4,33.0,29.5,27.6,89,62,37,30.15,29.97,7,0,7,0.00
2013-2-12,48.7,38.1,29.3,36.3,31.9,27.1,93,80,57,30.12,29.85,6,0,6,0.08
2013-2-13,52.7,41.9,35.4,44.1,37.3,33.8,95,84,62,29.97,29.86,6,0,7,0.04
2013-2-14,59.2,45.0,32.7,41.4,35.4,30.9,94,72,44,30.08,29.90,4,0,4,0.00
2013-2-15,44.6,38.5,27.7,34.9,24.7,14.3,79,59,33,30.26,30.08,8,0,8,0.00
2013-2-16,41.2,33.8,26.8,24.0,20.5,15.7,79,59,37,30.30,30.12,2,0,6,0.00
2013-2-17,63.7,46.8,31.8,34.1,26.9,18.7,66,47,29,30.12,29.83,13,2,13,0.00
2013-2-18,58.1,50.1,37.9,51.3,41.9,31.0,90,74,57,30.04,29.58,18,4,22,0.34
2013-2-19,46.0,36.1,28.2,31.3,22.2,15.6,80,60,31,30.27,30.04,11,1,11,0.00
2013-2-20,38.5,32.2,28.0,24.1,16.5,12.8,82,53,39,30.32,30.13,9,1,10,0.00
2013-2-21,32.9,31.3,29.1,31.3,27.1,15.8,94,85,50,30.14,29.75,14,2,16,0.00
2013-2-22,38.5,32.8,27.5,33.6,27.1,22.4,95,80,63,30.08,29.82,6,1,8,0.17
2013-2-23,45.1,32.4,23.4,27.8,24.4,19.9,90,74,46,30.09,29.92,5,0,5,0.02
2013-2-24,54.0,40.2,27.7,36.2,31.2,25.4,94,73,45,30.04,29.86,10,2,10,0.00
2013-2-25,54.5,41.5,32.7,40.0,33.6,28.2,94,76,43,29.89,29.36,14,2,14,0.57
2013-2-26,40.8,36.8,34.3,37.8,34.2,32.4,95,90,83,29.81,29.30,9,1,11,0.10
2013-2-27,44.1,37.9,35.4,35.0,31.7,29.2,88,79,65,29.99,29.76,11,2,11,0.00
2013-2-28,41.5,35.6,31.8,32.8,28.5,24.8,87,76,65,30.14,29.98,7,1,8,0.00
2013-3-1,36.3,32.6,30.0,28.1,25.5,23.1,83,75,68,30.21,30.11,6,0,6,0.00
2013-3-2,37.9,31.0,25.3,26.0,21.8,18.8,85,69,51,30.29,30.19,7,0,7,0.00
2013-3-3,55.4,39.2,23.4,29.6,25.6,20.3,89,62,36,30.21,29.86,11,2,11,0.00
2013-3-4,64.9,48.7,38.7,47.6,38.5,28.9,91,69,52,29.85,29.59,15,2,15,0.00
2013-3-5,45.7,40.7,32.7,43.2,29.6,21.8,94,66,42,30.23,29.72,10,3,17,0.02
2013-3-6,49.1,36.6,26.8,30.1,23.8,18.3,78,61,37,30.38,30.22,10,0,10,0.00
2013-3-7,59.5,45.6,34.0,33.9,30.4,25.8,76,57,34,30.30,30.13,8,1,8,0.00
2013-3-8,61.3,47.5,34.9,38.7,34.5,30.5,86,63,40,30.30,30.07,8,1,9,0.00
2013-3-9,72.3,58.8,46.2,55.5,44.7,37.0,87,61,41,30.07,29.69,20,4,20,0.06
2013-3-10,60.4,50.9,36.7,56.3,47.8,32.3,96,89,70,29.87,29.63,17,2,17,0.84
2013-3-11,46.8,37.6,32.2,34.4,30.2,27.9,90,75,50,30.00,29.84,10,1,10,0.00
2013-3-12,57.4,42.4,29.5,37.0,30.2,24.2,92,66,36,30.26,29.99,6,0,6,0.00
2013-3-13,53.8,40.0,31.6,29.9,25.4,22.0,84,58,30,30.43,30.26,7,0,7,0.00
2013-3-14,72.5,49.3,30.4,41.8,34.9,27.9,92,63,31,30.35,30.03,10,1,10,0.00
2013-3-15,81.1,60.3,39.6,53.0,42.8,37.1,92,59,25,30.06,29.73,13,2,15,0.00
2013-3-16,77.5,60.9,48.4,51.2,44.7,37.6,83,58,37,29.86,29.70,9,0,9,0.00
2013-3-17,49.3,43.1,40.8,40.7,38.9,37.1,95,86,64,29.93,29.66,8,1,10,0.34
2013-3-18,54.3,46.1,37.9,46.1,41.2,35.5,96,84,54,30.01,29.65,8,0,8,0.00
2013-3-19,57.0,44.1,32.5,38.6,31.0,23.3,95,65,29,30.21,29.99,7,0,7,0.00
2013-3-20,48.9,40.2,31.8,35.3,23.6,12.8,92,56,25,30.31,30.10,10,1,10,0.00
2013-3-21,46.9,35.5,30.2,31.1,23.4,15.6,93,65,31,30.10,29.86,11,1,11,0.02
2013-3-22,37.4,35.0,31.8,35.5,33.3,30.1,95,94,92,29.96,29.86,7,0,11,0.19
2013-3-23,42.6,39.3,35.4,40.5,37.5,34.1,96,93,88,29.96,29.69,6,0,7,0.00
2013-3-24,41.5,37.7,31.8,40.5,33.4,23.5,96,85,70,30.04,29.56,16,3,16,0.04
2013-3-25,38.3,32.2,27.1,27.5,23.2,19.6,77,69,57,30.28,30.01,11,2,11,0.00
2013-3-26,47.1,36.5,30.0,28.9,26.1,24.0,89,67,44,30.38,30.26,7,0,7,0.00
2013-3-27,60.1,43.5,27.5,38.9,29.8,25.5,94,64,31,30.35,30.13,8,2,8,0.00
2013-3-28,73.0,56.0,44.8,45.4,38.6,32.1,77,54,34,30.22,30.06,10,1,10,0.00
2013-3-29,67.3,55.5,47.1,57.5,49.7,42.5,95,82,58,30.16,30.06,6,0,6,0.12
2013-3-30,69.3,57.9,51.4,55.0,50.7,47.4,94,78,57,30.11,29.81,12,1,15,0.71
2013-3-31,69.8,56.4,47.7,56.2,47.8,38.5,97,77,34,29.93,29.80,9,0,9,0.21
2013-4-1,65.7,51.1,40.6,48.8,41.8,37.6,94,74,42,30.15,29.91,6,0,6,0.06
2013-4-2,45.7,40.3,38.1,41.1,35.1,30.8,91,82,62,30.26,30.13,6,0,7,0.12
2013-4-3,57.4,45.1,35.8,35.9,30.6,24.9,89,61,29,30.27,30.11,10,1,10,0.00
2013-4-4,59.9,49.0,40.6,46.7,36.1,30.5,87,64,35,30.14,29.98,2,0,4,0.00
2013-4-5,71.4,53.7,35.8,40.4,36.6,32.8,90,58,26,30.16,29.96,7,0,7,0.00
2013-4-6,77.2,64.0,49.1,47.0,42.3,35.5,72,46,32,29.97,29.75,16,3,21,0.00
2013-4-7,80.8,66.2,48.7,57.9,51.7,44.9,87,62,39,29.89,29.74,15,3,21,0.00
2013-4-8,78.1,67.3,57.0,63.9,58.1,53.7,93,73,56,29.81,29.72,19,3,19,0.02
2013-4-9,82.0,70.5,58.8,63.8,59.2,54.3,87,69,47,29.81,29.70,15,3,15,0.00
2013-4-10,82.9,65.9,43.0,64.7,57.1,40.5,93,75,53,29.81,29.58,10,2,12,0.96
2013-4-11,54.9,45.0,38.5,41.4,37.6,34.3,92,77,51,29.80,29.68,6,1,8,0.00
2013-4-12,61.2,48.1,36.5,40.1,35.6,33.0,92,65,36,30.00,29.77,7,1,8,0.00
2013-4-13,70.3,54.8,39.7,47.7,41.5,37.0,92,64,37,30.05,29.79,9,0,11,0.00
2013-4-14,79.5,65.0,47.7,57.4,49.5,44.3,89,61,30,29.82,29.51,16,4,22,0.00
2013-4-15,81.0,68.8,56.5,65.3,60.2,53.9,93,75,55,29.79,29.67,17,2,17,0.00
2013-4-16,84.6,68.1,57.0,66.5,58.9,52.9,93,74,53,29.95,29.77,0,0,5,0.00
2013-4-17,85.1,71.4,55.2,69.0,61.0,52.0,91,71,51,29.95,29.63,18,3,19,0.00
2013-4-18,76.1,58.6,43.0,66.3,52.1,33.2,94,80,67,29.90,29.53,17,1,17,0.67
2013-4-19,58.3,46.8,39.0,36.5,30.4,25.3,81,55,29,30.06,29.90,7,0,8,0.00
2013-4-20,69.1,53.5,37.9,45.2,38.8,35.7,93,62,31,30.18,30.05,1,0,3,0.00
2013-4-21,71.8,59.6,48.9,44.8,41.5,37.5,80,54,32,30.26,30.10,10,1,11,0.00
2013-4-22,75.6,59.7,43.0,48.1,42.3,37.5,91,57,28,30.18,29.89,11,1,11,0.00
2013-4-23,73.0,59.1,43.0,58.5,50.5,40.5,91,74,56,29.96,29.79,3,0,3,0.04
2013-4-25,70.7,64.3,57.4,43.4,37.2,31.4,58,38,24,30.24,30.17,6,0,6,0.00
2013-4-26,60.3,51.6,48.7,49.1,46.1,39.1,95,84,46,30.35,30.13,8,0,8,0.94
2013-4-27,57.7,53.0,48.6,55.8,51.5,47.2,96,95,93,30.15,29.92,2,0,2,0.80
2013-4-28,78.6,59.5,51.6,65.8,53.6,49.9,95,82,57,29.98,29.84,3,0,3,0.00
2013-4-29,85.8,67.1,49.6,64.8,56.3,48.2,96,72,43,29.91,29.72,8,0,8,0.00
2013-4-30,85.1,70.6,56.8,62.0,54.1,46.2,93,61,29,29.86,29.77,9,0,9,0.00
2013-5-1,84.2,67.9,55.2,65.7,58.9,51.2,92,74,50,30.03,29.85,7,0,7,0.06
2013-5-2,61.5,54.1,41.5,59.5,51.7,39.8,95,92,84,30.16,29.98,0,0,0,0.08
2013-5-3,42.6,38.6,37.0,40.2,36.8,35.4,95,93,89,30.13,29.89,2,0,2,0.25
2013-5-4,53.2,42.9,37.2,48.3,40.6,35.6,95,92,82,29.95,29.83,0,0,0,0.08
2013-5-5,59.9,50.2,38.8,51.8,45.6,37.5,96,85,65,30.01,29.91,5,0,5,0.00
2013-5-6,72.5,60.2,53.4,56.9,52.8,49.9,91,78,56,30.00,29.90,3,0,3,0.00
2013-5-7,80.4,64.1,51.3,60.6,54.4,49.5,94,74,45,30.02,29.91,2,0,2,0.00
2013-5-8,84.0,67.8,52.7,64.0,56.0,51.0,95,69,39,30.01,29.88,5,0,5,0.00
2013-5-9,83.5,68.5,60.6,62.5,59.5,56.0,95,75,46,29.93,29.82,8,0,8,0.18
2013-5-10,77.0,65.3,57.7,68.5,59.3,53.9,96,82,54,29.99,29.83,2,0,2,0.06
2013-5-11,78.3,62.6,52.0,56.7,48.9,36.0,94,65,28,30.14,29.98,5,0,5,0.00
2013-5-12,71.1,57.0,43.7,47.2,40.4,32.2,88,59,27,30.24,30.08,1,0,1,0.00
2013-5-13,84.6,64.7,49.8,55.8,50.4,44.6,91,63,36,30.17,29.98,7,0,7,0.00
2013-5-14,75.9,59.3,54.7,61.6,55.1,52.7,94,87,50,29.99,29.95,2,0,2,0.00
2013-5-16,64.0,63.1,62.4,62.6,61.9,61.3,96,96,95,29.85,29.82,0,0,0,0.00
2013-5-17,82.2,69.8,61.5,71.8,64.7,60.7,98,85,61,29.90,29.82,0,0,0,0.00
2013-5-18,85.6,73.4,63.7,74.8,68.6,62.5,96,86,69,29.92,29.80,4,0,4,0.00
2013-5-19,88.2,77.1,67.3,74.1,68.5,64.2,97,77,47,29.82,29.66,0,0,1,0.00
2013-5-20,83.1,75.2,64.8,71.4,66.9,58.2,90,76,56,29.83,29.67,0,0,0,0.18
2013-5-21,70.3,64.4,61.5,67.6,62.3,59.8,95,93,87,29.87,29.59,0,0,0,0.27
2013-5-22,80.6,68.8,56.8,65.6,60.0,55.7,96,76,49,29.90,29.72,0,0,0,0.02
2013-5-23,81.7,68.2,56.8,62.4,58.5,55.1,94,74,48,30.12,29.89,0,0,0,0.00
2013-5-24,75.7,65.3,56.8,55.6,51.1,46.2,87,63,37,30.28,30.12,0,0,0,0.00
2013-5-25,84.0,69.5,54.7,65.1,56.7,47.8,84,65,48,30.23,30.03,0,0,0,0.00
2013-5-26,88.2,74.7,62.2,69.8,63.7,58.9,90,70,50,30.09,29.95,0,0,0,0.00
2013-5-27,87.1,76.6,67.8,69.5,65.1,62.2,85,69,52,29.97,29.79,0,0,0,0.00
2013-5-28,86.5,77.6,70.5,69.3,65.9,63.8,88,68,53,29.86,29.75,5,0,5,0.00
2013-5-29,86.7,77.2,66.9,68.6,65.3,63.2,90,68,51,29.89,29.75,0,0,4,0.00
2013-5-30,87.4,74.7,66.7,70.0,66.3,59.8,88,76,52,29.83,29.71,2,0,3,0.08
2013-5-31,86.9,76.8,66.7,76.7,71.2,64.9,94,84,67,29.84,29.65,0,0,0,0.20
2013-6-1,78.4,71.3,64.2,73.5,67.3,59.6,96,88,73,29.92,29.69,0,0,0,0.78
2013-6-2,75.4,65.6,59.2,61.1,58.0,55.5,94,78,56,29.99,29.91,0,0,0,0.00
2013-6-3,78.4,67.9,58.1,60.9,57.9,54.6,89,72,50,30.02,29.88,0,0,0,0.00
2013-6-4,82.9,70.3,60.4,66.1,61.2,56.6,90,74,55,29.99,29.87,0,0,0,0.00
2013-6-5,84.6,73.0,64.8,69.0,64.7,61.7,93,76,54,29.95,29.78,0,0,0,0.00
2013-6-6,82.6,69.9,62.4,63.8,61.8,59.8,92,77,50,29.88,29.81,0,0,0,0.00
2013-6-7,82.2,68.6,58.8,61.0,57.7,53.5,93,71,39,29.92,29.84,0,0,0,0.00
2013-6-8,84.9,70.7,57.0,63.8,59.0,55.3,94,70,40,29.93,29.81,0,0,0,0.00
2013-6-9,84.2,72.3,64.6,73.4,63.1,57.7,88,74,47,29.88,29.77,0,0,0,0.02
2013-6-10,94.6,78.4,62.8,70.9,65.7,60.2,93,68,42,29.87,29.79,0,0,0,0.00
2013-6-11,98.4,82.5,67.8,74.6,67.7,60.9,94,66,30,29.95,29.86,0,0,0,0.00
2013-6-12,96.4,84.8,74.1,72.9,70.3,67.9,85,64,44,29.94,29.82,0,0,0,0.00
2013-6-13,93.0,82.6,75.0,72.6,68.1,63.7,82,63,41,29.96,29.85,0,0,0,0.00
2013-6-14,92.8,79.3,67.8,70.0,67.0,64.3,92,68,45,30.01,29.90,0,0,0,0.00
2013-6-15,93.4,78.4,69.4,72.6,68.0,64.7,88,72,45,30.00,29.89,0,0,0,0.00
2013-6-16,93.0,78.3,70.9,74.8,69.5,62.7,94,76,52,29.97,29.87,0,0,0,0.20
2013-6-17,83.8,74.0,68.9,76.7,70.4,66.8,96,89,73,29.95,29.82,0,0,0,0.06
2013-6-18,91.0,76.0,64.9,75.0,67.8,61.7,96,77,53,29.98,29.88,0,0,0,0.02
2013-6-19,93.4,77.6,64.0,70.3,65.2,61.9,94,69,40,30.01,29.92,0,0,0,0.00
2013-6-20,94.3,80.9,68.5,71.6,68.3,65.8,94,68,44,30.05,29.96,0,0,0,0.00
2013-6-21,97.9,84.1,73.2,75.8,71.8,68.6,88,68,45,30.06,29.95,0,0,0,0.00
2013-6-22,97.7,84.6,75.0,75.3,71.0,67.0,89,66,38,30.05,29.91,0,0,0,0.00
2013-6-23,97.3,83.9,72.9,74.3,69.9,67.2,86,65,42,29.98,29.87,4,0,6,0.00
2013-6-24,97.0,85.0,74.7,73.0,70.3,67.6,86,64,42,30.03,29.90,6,0,6,0.00
2013-6-25,96.4,84.9,77.2,73.7,69.8,67.1,78,62,43,29.94,29.80,3,0,4,0.00
2013-6-26,102.0,88.2,77.2,75.4,72.4,68.0,80,62,40,29.85,29.77,0,0,0,0.00
2013-6-27,105.4,89.2,76.3,77.3,73.9,67.8,90,64,31,29.91,29.80,0,0,4,0.00
2013-6-28,98.2,86.1,75.6,76.6,66.8,59.3,78,55,29,29.86,29.75,5,0,5,0.00
2013-6-29,92.3,79.9,68.5,65.9,58.0,50.4,81,51,27,29.80,29.71,6,0,6,0.00
2013-6-30,84.9,73.4,66.6,70.1,61.1,56.6,90,67,40,29.90,29.75,8,0,8,0.15
2013-7-1,86.7,74.4,64.8,64.0,59.1,53.3,88,62,34,29.97,29.88,8,0,8,0.00
2013-7-2,86.4,73.0,61.5,60.6,56.0,49.2,84,59,29,30.03,29.95,1,0,8,0.00
2013-7-3,91.2,74.5,61.0,61.6,57.3,52.8,92,60,29,30.07,29.95,0,0,0,0.00
2013-7-4,95.2,74.9,63.5,64.8,59.4,53.4,91,64,26,30.03,29.92,2,0,2,0.55
2013-7-5,91.2,75.9,63.1,72.0,64.0,59.1,96,71,37,30.02,29.90,0,0,0,0.00
2013-7-6,93.4,79.3,67.3,70.9,65.1,58.9,93,65,34,30.00,29.89,5,0,5,0.00
2013-7-7,96.1,82.5,69.1,70.3,66.2,61.1,91,62,32,30.02,29.93,6,0,7,0.00
2013-7-8,97.0,84.8,73.0,73.3,69.4,66.6,89,62,39,30.07,29.97,2,0,3,0.00
2013-7-9,100.9,88.0,76.1,72.8,69.2,67.2,80,56,35,30.04,29.91,4,0,7,0.00
2013-7-10,102.4,88.3,78.4,72.5,68.9,63.0,75,55,31,29.99,29.83,2,0,4,0.00
2013-7-11,99.0,85.1,73.9,74.6,67.2,58.0,89,59,29,29.97,29.87,3,0,6,0.00
2013-7-12,93.6,80.6,70.5,62.6,57.4,49.7,73,48,25,30.05,29.93,18,0,21,0.00
2013-7-13,93.0,77.5,64.2,65.0,59.7,55.9,88,58,31,30.03,29.92,5,0,5,0.00
2013-7-14,91.6,78.4,66.9,65.2,61.8,57.0,88,60,33,30.04,29.95,1,0,1,0.00
2013-7-15,96.4,80.5,72.3,71.2,68.5,64.6,86,69,41,30.13,30.03,6,0,6,0.00
2013-7-16,97.9,81.8,72.7,74.8,71.0,66.8,92,73,40,30.23,30.11,6,0,6,0.00
2013-7-17,99.0,83.3,72.7,75.6,69.7,64.7,94,68,36,30.27,30.12,4,0,6,0.00
2013-7-18,101.3,84.7,73.2,73.4,68.5,61.9,90,62,29,30.17,29.97,9,0,9,0.00
2013-7-19,102.6,80.3,73.0,75.7,69.7,66.4,91,72,37,30.00,29.88,22,0,25,0.04
2013-7-20,97.3,78.5,71.4,73.6,70.9,67.2,95,80,39,29.92,29.80,0,0,2,0.28
2013-7-21,90.1,77.0,71.4,79.5,73.6,69.9,96,89,68,29.90,29.80,0,0,0,0.06
2013-7-22,87.4,77.7,69.4,78.0,72.6,67.0,96,85,61,29.89,29.79,6,0,6,0.21
2013-7-23,102.0,82.5,70.9,78.4,72.4,68.4,93,75,40,29.86,29.72,12,0,12,0.49
2013-7-24,88.2,78.1,71.8,74.6,71.6,68.2,95,81,61,29.96,29.77,7,0,7,0.02
2013-7-25,88.3,77.3,67.1,68.5,64.7,62.3,89,67,46,30.06,29.96,5,0,5,0.00
2013-7-26,75.9,71.2,68.5,69.6,67.2,64.8,96,88,74,30.03,29.95,0,0,3,0.59
2013-7-27,84.0,74.3,67.8,70.9,66.6,62.1,96,79,48,30.00,29.90,3,0,3,0.00
2013-7-28,81.1,70.2,65.8,67.8,65.4,62.6,94,85,64,30.03,29.94,0,0,0,0.02
2013-7-29,88.9,77.5,68.7,73.0,69.6,65.7,94,78,59,30.07,29.97,6,0,6,0.00
2013-7-30,85.8,77.1,72.5,79.5,74.2,70.5,97,91,78,30.02,29.93,0,0,1,0.71
2013-7-31,91.9,81.6,74.5,78.5,73.8,69.7,96,79,57,30.00,29.92,0,0,1,0.02
2013-8-1,88.7,78.0,68.5,70.6,68.2,65.8,92,74,50,30.06,29.94,0,0,0,0.00
2013-8-2,91.2,80.5,71.8,75.9,71.4,67.2,88,75,58,29.96,29.85,3,0,6,0.00
2013-8-3,89.2,77.9,68.2,76.5,72.9,66.3,96,85,66,30.06,29.84,57,0,57,1.90
2013-8-4,78.6,74.2,71.8,73.0,71.4,69.6,94,91,81,30.10,30.00,0,0,0,0.74
2013-8-5,84.4,76.6,70.9,80.6,73.2,67.1,92,89,79,30.02,29.81,5,0,5,0.87
2013-8-6,89.2,77.6,70.9,81.4,70.8,64.7,87,80,75,29.92,29.77,5,0,5,0.00
2013-8-7,87.1,78.9,72.3,77.4,69.6,63.2,75,73,72,29.96,29.77,4,0,4,0.70
2013-8-8,84.4,75.9,70.9,73.6,66.1,61.8,73,72,69,29.93,29.83,0,0,2,0.87
2013-8-9,85.8,76.8,72.1,75.4,67.2,63.0,75,72,69,29.99,29.88,0,0,0,0.12
2013-8-10,84.0,75.6,69.6,74.0,65.7,60.9,74,72,69,30.08,29.97,1,0,1,1.76
2013-8-11,85.1,76.3,72.3,74.7,66.2,62.4,72,71,69,30.08,29.97,3,0,3,0.04
2013-8-12,89.8,77.3,73.2,78.8,67.3,63.7,76,71,68,30.00,29.90,0,0,0,0.14
2013-8-13,84.7,75.9,70.0,75.5,67.3,62.5,80,75,69,30.02,29.92,0,0,0,0.02
2013-8-14,80.4,71.0,63.5,65.0,60.4,56.3,80,70,51,30.12,30.01,2,0,4,0.00
2013-8-15,78.4,67.5,57.9,61.2,56.3,49.6,79,68,52,30.10,29.98,0,0,0,0.00
2013-8-16,79.7,68.4,60.4,64.0,57.9,51.8,80,70,53,30.07,30.00,0,0,0,0.00
2013-8-17,82.0,70.5,60.4,66.3,59.9,51.8,80,70,56,30.10,30.00,0,0,4,0.00
2013-8-18,84.6,73.5,63.9,69.8,62.2,55.0,77,68,55,30.11,30.00,0,0,0,0.00
2013-8-19,85.1,74.6,66.7,71.4,63.1,57.4,77,68,50,30.08,29.96,0,0,0,0.00
2013-8-20,86.9,76.0,68.2,71.0,64.1,58.8,77,67,53,30.07,29.97,0,0,0,0.00
2013-8-21,89.4,77.6,67.8,74.6,66.0,58.5,77,68,53,30.09,29.99,0,0,0,0.00
2013-8-22,90.5,79.4,70.9,76.4,66.8,61.4,77,66,45,30.08,29.96,0,0,0,0.00
2013-8-23,91.2,79.9,71.8,78.0,68.3,62.3,77,68,53,30.06,29.96,0,0,0,0.00
2013-8-24,90.7,80.7,73.2,75.4,68.4,63.3,77,67,51,30.13,30.01,0,0,5,0.00
2013-8-25,91.0,80.4,71.4,77.0,69.2,61.9,78,69,55,30.19,30.08,0,0,0,0.00
2013-8-26,92.3,82.1,73.4,75.6,70.2,63.5,77,68,54,30.18,30.05,0,0,0,0.00
2013-8-27,92.8,81.0,71.2,73.4,66.5,61.4,78,63,42,30.09,29.98,0,0,0,0.00
2013-8-28,92.8,81.0,70.3,74.9,68.1,60.5,77,66,47,30.04,29.95,0,0,0,0.00
2013-8-29,93.6,82.0,72.3,76.4,69.8,62.4,77,67,49,30.04,29.93,0,0,0,0.00
2013-8-30,96.1,84.7,75.6,76.8,71.2,65.5,77,65,46,29.97,29.83,0,0,0,0.00
2013-8-31,98.2,85.8,75.4,76.2,70.6,65.3,76,62,43,29.87,29.75,4,0,4,0.00
2013-9-1,85.8,80.1,75.9,75.2,70.5,65.9,77,73,63,29.87,29.75,0,0,0,0.04
2013-9-2,90.1,79.2,72.1,70.7,64.9,62.1,74,63,45,29.94,29.84,0,0,0,0.00
2013-9-3,86.5,75.0,64.8,68.1,61.3,55.5,77,64,41,30.03,29.92,0,0,0,0.00
2013-9-4,86.5,74.4,62.8,69.2,60.7,53.6,76,64,42,30.12,30.00,0,0,0,0.00
2013-9-5,87.1,74.7,63.9,69.5,61.6,55.0,76,65,43,30.16,30.05,0,0,0,0.00
2013-9-6,87.4,76.2,66.4,69.9,63.7,57.1,77,66,47,30.12,29.97,0,0,0,0.00
2013-9-7,93.0,80.1,68.7,71.0,65.1,59.3,75,62,40,30.02,29.89,0,0,0,0.00
2013-9-8,94.1,81.1,70.7,72.9,67.5,61.2,76,64,46,29.93,29.84,0,0,0,0.00
2013-9-9,97.2,83.3,72.7,74.1,67.7,62.8,76,61,38,29.98,29.87,0,0,0,0.00
2013-9-10,95.4,81.7,71.2,72.7,66.0,60.8,76,61,33,30.08,29.95,0,0,0,0.00
2013-9-11,95.5,81.2,71.8,73.5,67.3,62.3,76,64,39,30.11,30.00,0,0,0,0.00
2013-9-12,95.5,78.7,71.2,73.7,67.8,61.9,76,70,43,30.04,29.93,0,0,0,0.04
2013-9-13,81.1,72.8,64.2,67.8,57.0,52.2,76,59,41,30.07,29.95,0,0,0,0.00
2013-9-14,78.6,68.2,58.3,56.8,53.8,50.7,78,62,41,30.08,29.96,0,0,0,0.00
2013-9-15,87.1,72.5,58.3,64.4,57.2,50.6,78,60,40,30.03,29.96,0,0,0,0.00
2013-9-16,77.2,71.6,66.0,68.6,63.2,57.1,77,75,72,30.16,30.00,0,0,0,0.25
2013-9-17,85.8,75.3,66.9,68.7,64.1,58.7,77,69,55,30.13,29.97,0,0,0,0.00
2013-9-18,89.4,77.5,70.0,74.0,67.5,60.5,77,72,57,30.01,29.90,0,0,0,0.02
2013-9-19,92.5,78.5,72.7,73.1,68.2,63.9,77,71,50,29.97,29.86,5,0,6,0.12
2013-9-20,74.8,70.7,68.4,65.3,61.4,59.0,73,72,72,29.92,29.86,1,0,1,0.59
2013-9-21,74.8,66.1,57.6,52.9,50.2,47.0,78,59,38,29.90,29.86,0,0,0,0.00
2013-9-22,74.5,62.7,52.7,58.9,51.4,45.0,79,68,45,29.97,29.84,0,0,0,0.00
2013-9-23,77.4,66.0,56.3,59.3,54.8,48.4,79,68,50,29.92,29.79,6,0,6,0.00
2013-9-24,82.0,70.2,61.2,63.4,57.8,53.6,79,66,42,29.88,29.75,1,0,1,0.00
2013-9-25,81.1,68.7,60.3,62.6,58.1,52.3,79,70,50,29.84,29.77,0,0,0,0.00
2013-9-26,82.8,71.3,62.2,67.0,60.5,53.8,78,69,53,29.94,29.82,2,0,4,0.00
2013-9-27,85.8,74.5,65.3,70.2,63.0,56.4,78,68,48,30.00,29.89,7,0,7,0.00
2013-9-28,88.2,73.9,68.4,68.4,63.4,59.6,79,71,51,29.97,29.88,4,0,4,0.31
2013-9-29,77.2,68.1,61.0,67.7,59.7,52.7,79,75,70,30.01,29.89,0,0,0,0.06
2013-9-30,79.7,71.3,66.0,68.6,63.2,57.5,80,76,67,29.92,29.82,2,0,3,0.00
2013-10-1,86.7,76.0,68.9,73.2,65.2,60.2,79,70,51,29.96,29.86,0,0,1,0.00
2013-10-2,86.4,74.1,68.5,72.2,64.9,59.5,79,73,58,30.00,29.88,3,0,3,0.10
2013-10-3,85.1,74.8,67.6,73.3,66.0,59.5,80,74,61,29.93,29.82,4,0,4,0.00
2013-10-4,88.3,77.4,70.0,71.6,66.6,61.2,80,70,51,29.91,29.83,6,0,6,0.00
2013-10-5,74.5,64.4,51.8,68.0,56.9,45.0,81,76,72,29.97,29.85,0,0,2,0.92
2013-10-6,64.8,56.5,50.5,50.2,47.1,44.4,83,71,53,29.95,29.87,1,0,1,0.00
2013-10-7,69.6,59.5,51.6,53.2,48.9,46.3,83,69,44,30.10,29.94,1,0,2,0.00
2013-10-8,71.1,60.2,52.3,55.3,49.9,45.4,82,70,50,30.14,30.02,3,0,6,0.00
2013-10-9,72.7,61.3,53.2,58.4,52.2,46.0,82,73,52,30.11,30.00,4,0,4,0.00
2013-10-10,75.9,65.0,57.4,63.5,55.1,49.5,81,71,51,30.08,29.92,3,0,3,0.00
2013-10-11,79.5,68.4,58.8,64.8,58.8,51.1,81,72,57,29.97,29.83,6,0,6,0.00
2013-10-12,74.8,67.1,60.8,67.1,59.9,54.0,82,78,72,30.13,29.87,0,0,2,0.43
2013-10-13,73.0,64.5,57.0,56.8,51.6,46.8,82,64,46,30.29,30.13,0,0,0,0.00
2013-10-14,68.2,61.9,55.2,60.4,53.8,48.6,83,75,60,30.23,29.97,0,0,0,0.04
2013-10-15,69.4,64.1,57.6,60.5,56.9,50.5,82,78,73,30.00,29.85,0,0,0,0.22
2013-10-16,63.3,55.7,48.7,51.9,46.8,43.8,84,72,56,30.06,29.93,0,0,0,0.15
2013-10-17,63.9,54.9,47.8,51.3,46.2,40.9,83,73,53,30.01,29.92,0,0,0,0.02
2013-10-18,66.4,54.1,46.9,54.3,46.4,40.1,83,75,60,30.04,29.90,0,0,0,0.16
2013-10-19,58.3,49.3,42.1,44.0,40.7,37.5,85,73,49,30.08,29.97,4,0,4,0.06
2013-10-20,68.9,55.0,43.9,49.6,43.4,38.5,84,68,38,30.00,29.85,5,0,5,0.00
2013-10-21,59.7,53.5,46.6,51.0,46.8,40.1,83,78,68,30.05,29.90,0,0,0,0.08
2013-10-22,67.3,53.4,42.4,51.5,43.0,35.9,82,69,47,30.06,29.83,1,0,1,0.00
2013-10-23,57.0,49.0,40.8,44.5,39.0,35.5,83,69,49,30.15,29.98,0,0,0,0.00
2013-10-24,54.7,47.5,41.7,42.6,36.1,29.9,84,66,41,30.37,30.06,5,0,5,0.00
2013-10-25,55.8,45.5,35.4,37.9,32.3,29.4,84,62,38,30.49,30.19,4,0,4,0.00
2013-10-26,70.3,55.4,43.0,56.0,45.5,31.3,82,70,56,30.19,30.00,0,0,0,0.00
2013-10-27,65.8,55.0,45.9,51.0,45.5,37.5,83,71,56,30.07,29.94,0,0,0,0.00
2013-10-28,67.8,56.4,49.3,57.5,49.1,42.3,83,77,65,30.16,29.99,2,0,2,0.00
2013-10-29,67.8,62.0,55.4,61.7,54.3,48.3,81,76,74,30.14,29.96,2,0,2,0.19
2013-10-30,71.2,67.1,62.4,64.9,60.5,54.7,83,79,75,30.00,29.79,4,0,5,0.49
2013-10-31,75.4,64.0,53.2,66.9,55.7,48.2,84,75,49,29.79,29.39,6,0,7,0.16
2013-11-1,67.8,56.4,48.2,49.2,45.5,41.9,84,69,39,29.92,29.70,2,0,2,0.00
2013-11-2,58.8,50.0,43.5,45.1,41.4,37.9,85,73,51,30.18,29.91,6,0,6,0.00
2013-11-3,61.9,50.5,40.6,44.8,39.4,35.2,84,67,45,30.23,30.03,8,0,8,0.00
2013-11-4,58.6,53.9,51.1,48.1,44.7,40.8,83,71,64,30.16,30.03,8,0,8,0.16
2013-11-5,63.1,57.2,53.4,57.9,50.5,46.0,84,78,76,30.15,29.94,8,1,8,0.53
2013-11-6,61.3,51.0,41.9,54.1,45.0,37.2,86,80,75,30.30,29.85,5,0,9,0.49
2013-11-7,61.0,47.0,37.2,43.6,38.0,32.1,86,73,40,30.41,30.26,3,0,3,0.00
2013-11-8,65.5,50.9,39.6,45.2,38.4,34.1,84,65,36,30.32,30.06,6,0,6,0.00
2013-11-9,65.5,54.0,45.0,48.2,44.7,39.7,84,72,49,30.21,30.07,1,0,1,0.00
2013-11-10,64.0,54.1,46.8,48.0,43.2,38.2,85,69,39,30.35,30.21,2,0,5,0.00
2013-11-11,68.7,55.5,45.7,54.2,46.5,39.4,84,73,51,30.33,30.10,5,0,7,0.00
2013-11-12,46.2,36.9,30.0,39.4,21.9,15.0,77,56,35,30.69,30.34,9,0,11,0.00
2013-11-13,50.5,37.1,25.7,27.1,21.6,15.7,86,56,31,30.66,30.31,3,0,6,0.00
2013-11-14,59.2,45.2,32.2,37.8,26.2,21.5,81,51,28,30.31,30.01,6,0,6,0.06
2013-11-15,57.4,49.2,43.3,48.7,43.4,37.2,85,81,71,30.03,29.87,6,0,6,0.04
2013-11-16,70.0,64.0,52.9,62.8,57.0,47.9,84,78,68,29.87,29.59,14,2,14,0.03
2013-11-17,79.3,69.1,54.1,65.2,48.8,26.9,83,53,22,30.00,29.50,11,2,12,0.00
2013-11-18,63.3,51.3,43.3,41.2,34.3,24.0,84,56,23,30.24,30.00,4,0,6,0.00
2013-11-19,57.0,47.7,39.4,40.8,32.9,23.0,86,60,33,30.27,30.08,8,1,9,0.00
2013-11-20,62.4,50.1,40.8,36.9,31.2,27.7,65,50,27,30.10,29.89,6,1,9,0.00
2013-11-21,56.1,51.8,48.4,49.6,43.8,35.7,84,75,47,30.17,29.97,6,0,6,1.85
2013-11-22,52.7,39.8,34.3,45.4,35.1,30.2,86,83,75,30.47,30.15,6,0,6,0.00
2013-11-23,43.2,35.6,24.1,33.0,26.0,12.7,87,69,49,30.65,30.46,6,0,6,0.00
2013-11-24,32.9,26.3,18.7,16.8,14.1,11.2,74,60,47,30.69,30.37,7,0,7,0.00
2013-11-25,37.9,33.1,30.4,30.2,23.7,14.7,85,69,51,30.37,30.14,6,0,6,0.00
2013-11-26,48.2,37.8,28.0,32.9,28.2,16.5,85,69,50,30.26,30.01,10,1,10,0.00
2013-11-27,37.6,28.6,21.9,22.7,15.7,11.7,79,59,41,30.40,30.26,5,0,5,0.00
2013-11-28,55.6,38.6,25.3,36.1,26.8,17.2,85,65,40,30.40,30.23,0,0,0,0.00
2013-11-29,53.2,40.9,30.9,38.7,32.1,26.1,85,72,49,30.50,30.29,4,0,4,0.00
2013-11-30,59.5,45.5,34.3,43.8,36.9,29.3,85,73,55,30.31,30.07,6,0,7,0.00
2013-12-1,58.8,49.8,41.7,50.5,43.7,36.2,84,80,73,30.11,29.84,0,0,0,0.00
2013-12-2,61.9,49.5,43.0,51.6,42.7,36.2,84,77,64,29.83,29.62,2,0,3,0.00
2013-12-3,63.7,53.2,43.0,55.7,46.5,36.6,84,78,72,29.65,29.51,9,1,9,0.00
2013-12-4,70.9,55.2,41.2,57.6,46.1,35.4,82,72,50,29.88,29.55,11,1,11,0.00
2013-12-5,41.0,30.0,23.5,35.5,25.0,19.9,86,82,70,30.25,29.88,8,1,8,0.04
2013-12-6,25.3,22.0,19.2,21.1,17.9,13.4,87,84,77,30.54,30.21,0,0,0,0.00
2013-12-7,25.7,18.4,9.1,15.4,10.4,3.2,78,71,60,30.66,30.34,7,0,7,0.00
2013-12-8,32.2,26.4,20.8,27.6,21.4,13.8,86,82,69,30.34,30.00,7,1,7,0.00
2013-12-9,33.8,28.6,23.7,28.0,21.9,17.7,86,76,64,30.31,30.13,10,0,10,0.00
2013-12-10,37.0,27.5,19.2,25.3,21.3,15.3,86,78,56,30.39,30.24,5,0,5,0.00
2013-12-11,38.3,28.4,22.5,28.9,22.9,16.9,87,80,61,30.59,30.26,5,0,5,0.00
2013-12-12,40.6,29.1,19.6,30.9,22.6,14.6,87,77,61,30.60,30.26,6,0,7,0.00
2013-12-13,35.6,33.1,28.0,31.6,28.4,24.1,86,83,77,30.27,29.84,6,0,10,0.00
2013-12-14,37.9,33.7,30.0,32.0,28.7,26.3,86,82,77,30.19,29.81,7,1,7,0.02
2013-12-15,50.7,35.2,25.5,37.4,29.2,21.9,87,80,56,30.23,30.06,6,0,6,0.00
2013-12-16,64.0,45.1,33.1,43.4,34.2,27.7,85,68,37,30.08,29.97,5,0,5,0.00
2013-12-17,56.1,42.0,33.6,41.3,32.6,28.1,85,71,43,30.26,30.06,6,0,6,0.00
2013-12-18,60.1,45.5,31.5,41.2,33.6,26.1,85,65,43,30.26,29.92,10,1,13,0.00
2013-12-19,59.7,55.6,51.4,52.8,47.1,40.4,84,73,62,29.93,29.72,10,2,10,0.00
2013-12-20,68.7,54.8,38.8,61.2,49.7,35.0,86,83,73,29.84,29.69,13,0,13,0.02
2013-12-21,41.2,38.9,36.9,34.4,32.6,30.6,81,78,77,29.75,29.44,4,0,11,1.06
2013-12-22,41.0,34.7,29.3,34.3,30.0,24.6,86,83,77,30.30,29.64,8,1,8,0.00
2013-12-23,35.4,27.3,19.2,24.8,21.1,15.3,85,78,59,30.56,30.30,5,0,6,0.00
2013-12-24,36.3,25.8,18.5,25.2,19.2,14.4,85,76,60,30.57,30.30,7,1,8,0.00
2013-12-25,47.1,34.2,26.2,36.6,28.5,21.1,87,80,66,30.35,30.23,5,0,5,0.00
2013-12-26,49.8,37.2,28.2,39.3,29.5,22.8,85,74,55,30.39,30.23,19,0,23,0.00
2013-12-27,55.9,38.9,29.3,46.2,32.2,24.2,86,78,53,30.38,30.24,0,0,0,0.00
2013-12-28,51.3,39.2,31.1,44.3,32.4,25.2,85,77,63,30.26,29.91,2,0,2,0.00
2013-12-29,43.5,33.8,24.1,38.4,27.9,17.3,86,79,71,30.25,29.89,6,0,8,0.00
2013-12-30,37.6,26.7,17.4,24.0,18.7,11.6,85,72,54,30.31,30.18,1,0,1,0.00
2013-12-31,54.7,38.0,25.0,33.1,26.1,21.1,87,65,33,30.38,30.15,10,1,10,0.00
2014-1-1,52.5,40.9,29.8,35.5,30.0,23.8,86,67,46,30.16,29.86,9,1,9,0.00
2014-1-2,31.5,21.8,16.0,24.0,13.1,7.4,80,70,53,30.47,30.01,12,1,12,0.00